Location: Santa Maria di Sala
(45.5070°N, 12.0300°E)
Time: 08:53:21
(UTC+02:00)

STRAND 1 - Pass Details

Date: 29 February 2024
Orbit: 764 x 779 km, 98.4° (Epoch: 16 April)

Event Time Altitude Azimuth Distance (km) Brightness Sun altitude
Rises 04:57:30 0° 141° (SE) 3,252 ? -20.7°
Reaches altitude 10° 04:59:56 10° 133° (SE) 2,328 ? -20.3°
Maximum altitude 05:04:38 38° 67° (ENE) 1,190 ? -19.5°
Drops below altitude 10° 05:09:21 10° 1° (N) 2,342 ? -18.7°
Sets 05:11:49 0° 354° (N) 3,273 ? -18.2°
